Dewpoint
40 39 39 39 39 38 38 37 34 32 29 24 20 19 18 18 18 19 19 19 19 20 22 22 23 23 24 25 26 26 25 24 21 21 23 24 25 26 25 27 28 27 27
38 38 38 36 34 32 30 26 20 17 17 18 19 19 19 19 18 18 19 20 20 21 23 23 23 22 25 24 25 24 24 24 24 22 23 24 25 26 26 26 26 25 27
36 34 32 29 24 19 16 15 16 17 18 18 18 17 16 17 17 20 21 22 23 24 24 24 23 23 23 24 24 25 26 24 26 24 24 25 26 26 26 26 26 27 26
32 29 24 19 16 16 17 18 19 18 17 17 17 17 18 18 18 22 24 24 24 24 24 24 23 23 23 26 26 27 25 25 26 26 26 27 26 27 27 26 27 27 28
25 22 18 17 18 19 18 18 17 17 16 17 17 19 19 18 18 25 26 26 24 23 23 22 23 25 29 28 25 26 27 27 27 27 26 27 26 25 24 26 25 27 27
21 18 19 19 18 18 17 17 18 17 17 17 18 20 21 17 24 26 26 26 24 23 23 23 24 27 27 29 30 30 30 28 27 28 27 26 25 25 25 27 26 26 25
18 18 18 17 16 17 17 17 17 17 17 17 18 19 19 20 25 27 27 26 24 24 23 24 24 24 27 26 28 31 31 32 32 30 28 26 26 27 27 28 28 27 27
18 17 17 18 17 17 17 17 17 16 17 18 18 19 20 19 26 27 28 26 24 24 25 25 25 25 26 28 29 28 28 28 29 28 28 29 30 30 30 30 29 28 27
18 17 18 18 18 18 18 17 17 17 18 19 19 19 19 19 26 27 26 24 23 24 25 26 26 27 30 31 29 29 28 28 28 31 33 33 31 30 29 27 26 26 24
16 17 19 19 17 17 17 17 18 18 18 19 18 19 21 20 23 26 26 25 24 24 25 25 29 29 30 30 28 28 28 29 33 31 28 26 26 25 26 25 26 25 25
19 19 19 18 17 17 18 18 19 19 18 18 18 19 19 19 21 27 28 25 24 24 24 24 26 30 30 30 30 32 33 28 27 25 23 21 20 21 24 25 25 26 26
19 18 17 17 17 18 19 19 19 18 18 18 18 18 18 19 24 26 27 27 27 25 25 26 27 30 32 35 31 30 28 27 23 21 21 21 21 22 23 25 25 25 27
16 16 16 16 18 19 19 19 18 18 18 17 18 18 18 20 22 27 27 27 28 27 28 28 28 30 30 29 27 26 24 20 20 22 22 22 24 25 25 27 26 26 26
15 15 16 17 19 19 19 19 19 18 17 17 18 18 21 21 23 23 23 25 28 29 29 27 30 30 26 23 21 20 20 21 22 24 23 24 24 23 23 26 26 24 24
15 16 17 18 19 18 19 19 18 19 20 20 22 22 23 23 23 26 28 25 26 29 27 28 24 19 18 18 19 20 21 21 21 21 23 23 22 22 22 25 25 24 22
15 16 17 18 19 19 19 18 21 22 24 25 25 25 23 25 26 26 28 26 27 26 29 22 18 18 18 18 19 18 19 20 20 22 23 24 24 24 24 24 25 25 23
15 16 19 19 19 19 19 18 18 20 23 24 24 24 24 25 25 26 26 25 26 27 20 18 18 18 19 19 19 20 21 21 23 24 25 24 25 25 24 24 23 23 22
17 21 18 20 20 19 19 19 20 20 20 19 21 22 24 25 24 24 24 23 21 21 18 19 19 18 19 20 21 21 22 22 23 23 24 24 25 25 24 23 23 23 22
18 20 20 19 20 21 21 21 21 21 20 19 19 21 22 24 24 24 24 20 22 20 20 19 19 20 20 21 21 21 22 22 22 24 24 23 24 24 23 23 24 23 24
20 22 21 21 21 21 21 21 20 20 20 19 19 20 21 22 22 22 21 21 21 20 20 20 20 20 21 21 21 21 21 21 21 22 23 23 24 24 23 23 24 23 23
20 21 22 22 21 21 21 21 21 21 20 20 20 21 23 22 22 20 19 20 20 21 21 21 21 21 21 21 21 20 20 20 21 21 22 23 23 22 23 24 24 24 24
21 21 21 20 20 20 21 21 21 20 20 20 20 20 23 21 20 20 20 20 20 21 22 21 21 21 21 20 20 20 20 20 20 21 22 21 22 22 23 23 23 24 24
22 21 21 21 20 21 21 21 20 19 19 19 19 20 20 20 20 20 19 19 20 21 21 20 20 19 19 20 21 21 20 20 21 22 21 21 21 21 22 23 23 24 23
21 21 20 19 19 19 19 19 19 20 21 21 20 20 19 19 19 19 19 19 20 19 19 19 18 17 17 18 19 20 21 21 22 22 21 21 21 22 23 25 26 24 22
20 19 18 18 18 18 18 18 18 18 18 18 19 19 19 18 18 18 18 18 17 17 17 16 17 16 15 16 17 18 20 23 26 28 29 29 28 28 28 25 23 22 20
20 20 21 20 18 18 18 18 17 18 18 18 18 18 18 18 18 17 17 16 15 15 15 15 14 13 14 17 18 20 25 27 28 32 30 26 25 24 23 21 21 20 20
Lifted_Index
3 4 5 6 8 9 10 10 11 11 11 12 12 12 12 14 15 17 18 18 18 18 18 19 19 19 19 19 19 19 19 19 19 19 20 20 20 20 20 20 19 19 19
4 4 5 7 9 9 10 10 11 11 11 12 12 13 14 16 17 18 18 18 18 18 18 18 19 19 19 19 19 19 19 19 18 18 19 19 19 19 19 18 18 18 17
5 5 6 8 9 10 10 11 11 12 12 13 14 15 17 18 18 18 18 18 18 18 18 18 18 18 18 18 18 18 18 18 18 18 18 18 18 17 17 16 16 15 15
5 6 7 8 9 10 10 11 12 13 14 15 16 17 18 18 18 18 18 18 18 18 18 18 18 18 18 18 18 17 17 17 17 17 16 16 16 15 15 14 14 13 13
6 7 8 9 9 10 11 12 13 15 16 17 18 18 18 18 18 18 18 18 18 17 17 18 18 18 18 17 17 16 16 16 15 15 15 14 13 13 13 13 12 12 11
7 7 8 9 10 11 12 14 15 17 17 17 18 18 18 18 18 18 18 18 17 17 17 17 17 17 17 17 16 15 15 14 14 13 13 12 12 12 11 11 11 10 10
8 8 9 10 11 12 14 16 16 17 17 17 17 17 17 18 18 18 18 17 17 17 16 16 16 16 16 16 15 14 14 13 12 12 11 11 10 10 10 10 9 8 8
8 9 10 11 12 14 16 16 16 16 17 17 17 17 17 17 18 18 17 17 17 16 16 16 15 15 15 15 14 13 12 12 11 11 10 10 9 9 8 8 8 8 8
9 10 11 13 15 15 16 16 16 17 17 17 17 17 17 17 17 17 17 16 16 15 15 15 15 14 14 13 12 12 11 11 10 10 10 9 9 8 8 8 8 8 7
11 12 14 15 16 16 16 16 17 17 17 17 17 17 17 17 17 16 16 15 15 14 14 14 14 13 13 12 11 11 10 10 10 10 9 9 9 9 8 8 8 8 8
14 15 16 16 16 16 16 17 17 17 16 16 16 16 16 16 16 15 15 15 14 14 14 14 13 13 12 11 10 10 10 10 10 10 9 9 9 9 9 8 8 8 8
16 16 16 16 16 16 16 16 16 16 16 16 15 15 15 15 15 15 15 15 14 14 13 13 13 12 11 10 10 10 10 10 10 10 9 9 9 9 8 8 8 8 8
15 15 15 15 16 16 16 16 16 15 15 15 14 14 14 14 15 15 14 14 14 14 13 12 12 11 10 10 10 10 10 10 10 10 9 9 9 8 8 8 8 8 7
14 14 14 15 15 16 15 15 15 15 14 14 14 14 14 14 14 14 14 14 14 13 12 12 11 11 11 11 10 10 10 10 10 9 9 9 8 8 8 8 7 7 7
13 13 14 15 15 15 15 15 15 14 14 14 14 14 14 14 14 14 14 14 13 12 12 11 11 11 10 10 10 10 10 10 10 9 9 9 8 8 7 7 7 6 6
12 13 14 14 14 14 14 14 14 14 15 15 15 15 15 15 14 14 14 13 13 12 11 11 10 10 10 10 10 10 10 10 10 9 9 8 8 7 7 7 6 6 5
13 13 14 14 14 14 13 13 13 14 14 14 15 15 15 15 14 14 13 13 12 11 11 10 10 10 9 10 10 10 10 10 10 9 9 8 8 7 6 6 5 5 5
14 14 14 13 13 13 13 13 13 13 13 13 14 14 14 14 14 14 13 12 11 11 10 10 10 10 10 10 10 10 10 10 10 9 9 8 7 7 6 5 5 4 4
14 13 13 13 13 13 13 13 13 13 13 13 13 14 14 14 14 13 12 12 11 10 10 10 10 10 11 11 11 11 11 10 10 9 8 7 7 6 5 5 4 4 4
13 13 13 13 13 13 13 13 13 13 13 13 13 14 14 14 13 12 11 11 11 11 11 11 11 11 11 11 11 11 11 10 9 9 8 7 7 6 5 5 4 4 4
13 13 13 13 13 13 13 13 13 13 13 13 13 14 14 13 12 11 11 11 11 11 11 11 11 11 11 11 11 11 10 10 9 8 7 7 7 6 5 5 4 4 4
13 13 13 13 13 13 13 13 13 13 13 13 13 13 13 12 12 11 11 11 11 12 12 12 12 12 12 11 11 11 10 10 9 8 7 7 7 6 6 5 5 5 5
12 13 13 13 13 13 13 13 13 13 13 13 12 12 12 12 11 11 11 12 12 12 12 12 12 12 12 12 11 11 10 10 9 8 8 7 7 6 6 6 6 5 5
12 12 12 12 13 13 13 13 13 12 12 12 11 11 11 11 11 12 12 12 12 12 12 12 12 12 12 11 11 10 10 10 10 9 8 7 7 7 6 6 6 6 6
12 12 12 12 12 12 12 12 12 12 11 11 11 11 12 12 12 12 12 12 12 12 12 12 12 12 12 11 11 11 11 11 10 9 8 8 8 7 7 7 7 7 7
12 12 12 12 13 12 12 12 11 11 11 11 12 12 12 12 12 12 12 12 12 12 12 12 12 12 12 11 11 11 11 11 10 9 9 8 8 8 8 8 8 8 8